645  
ASUS42 KCAE 280010  
RWRCAE  
REGIONAL WEATHER ROUNDUP  
NATIONAL WEATHER SERVICE COLUMBIA SC  
800 PM EDT TUE SEP 27 2022  
 
NOTE: "FAIR" INDICATES FEW OR NO CLOUDS BELOW 12,000 FEET WITH NO  
SIGNIFICANT WEATHER AND/OR S TO VISIBILITY
.  
 
NOT ALL STATIONS ARE QUALITY CONTROLLED BY THE NATIONAL  
WEATHER SERVICE. USE DATA WITH CAUTION...ESPECIALLY  
DEWPOINT OBSERVATIONS.  
 
SCZ001>059-115-116-135>137-GAZ040-063>065-077-280100-   
..UPSTATE SOUTH CAROLINA
 
 
 
CITY SKY/WX TMP DP RH WIND PRES REMARKS
 
ANDERSON CLEAR 66 40 38 NW5 30.04R  
6HR MIN TEMP: 65; 6HR MAX TEMP: 78;  
 
LIBERTY CLEAR 60 53 76 MISG 30.04R  
6HR MIN TEMP: 60; 6HR MAX TEMP: 78;  
 
SPARTANBURG CLEAR 64 32 29 N7 30.05R  
CLEMSON CLEAR 66 39 37 NW8 30.05R  
6HR MIN TEMP: 66; 6HR MAX TEMP: 76;  
 
GREENVILLE CLEAR 67 38 34 NE10 30.06R  
6HR MIN TEMP: 67; 6HR MAX TEMP: 77;  
 
GREENWOOD PTCLDY 60 44 55 CALM 30.04R  
6HR MIN TEMP: 60; 6HR MAX TEMP: 78;  
 
GREER CLEAR 62 39 42 N7 30.06R  
6HR MIN TEMP: 62; 6HR MAX TEMP: 75;  
 
ROCK HILL PTCLDY 62 44 51 N5 30.05R  
6HR MIN TEMP: 61; 6HR MAX TEMP: 79;  
 
CHESTER PTCLDY 63 34 34 W3 30.05R  
LAURENS PTCLDY 64 45 48 N6 30.04R  
 
   
..CENTRAL SOUTH CAROLINA
 
 
 
CITY SKY/WX TMP DP RH WIND PRES REMARKS
 
COLUMBIA APT CLOUDY 71 51 49 S3 30.00R  
6HR MIN TEMP: 69; 6HR MAX TEMP: 82;  
 
COLUMBIA OWENS CLOUDY 71 49 45 CALM 30.01R  
6HR MIN TEMP: 70; 6HR MAX TEMP: 82;  
 
MCENTIRE ANGB MOCLDY 67 53 61 S3 29.99R  
6HR MIN TEMP: 66; 6HR MAX TEMP: 80;  
 
ORANGEBURG CLOUDY 65 57 75 CALM 30.01R  
6HR MIN TEMP: 65; 6HR MAX TEMP: 78;  
 
SUMTER SHAW MOCLDY 69 52 55 NW3 29.99R  
6HR MIN TEMP: 69; 6HR MAX TEMP: 80;  
 
NEWBERRY MOCLDY 68 36 30 NE6 30.06R  
AIKEN FAIR 68 42 39 CALM 30.01R  
6HR MIN TEMP: 66; 6HR MAX TEMP: 82;  
 
BARNWELL FAIR 68 55 64 CALM 30.01R  
MANNING FAIR 63 57 82 CALM 30.01R  
CAMDEN FAIR 72 45 37 CALM 30.02R  
LANCASTER PTCLDY 68 39 34 CALM 30.03R  
WINNSBORO MOCLDY 68 32 26 N5 30.03R  
 
   
..EASTERN AND COASTAL SOUTH CAROLINA
 
 
 
CITY SKY/WX TMP DP RH WIND PRES REMARKS
 
MYRTLE BEACH CLOUDY 69 57 65 NW5 30.00R  
6HR MIN TEMP: 69; 6HR MAX TEMP: 78;  
 
N MYRTLE BCH CLOUDY 63 58 83 CALM 29.99R  
6HR MIN TEMP: 63; 6HR MAX TEMP: 77;  
 
CONWAY FAIR 63 61 94 CALM 30.00S  
MARION FAIR 63 52 67 CALM 30.01R  
HARTSVILLE FAIR 64 52 63 CALM 30.01R  
FLORENCE CLOUDY 67 53 61 S3 30.01R  
6HR MIN TEMP: 67; 6HR MAX TEMP: 80;  
 
DARLINGTON CLOUDY 63 55 75 CALM 30.02R  
6HR MIN TEMP: 63; 6HR MAX TEMP: 79;  
 
CHARLESTON APT CLOUDY 67 57 70 N5 30.00R  
6HR MIN TEMP: 66; 6HR MAX TEMP: 79;  
 
MOUNT PLEASANT FAIR 68 63 83 CALM 29.99R  
WALTERBORO CLOUDY 63 59 88 CALM 30.02R  
BEAUFORT CLOUDY 68 62 81 CALM 30.00R  
6HR MIN TEMP: 68; 6HR MAX TEMP: 81;  
 
HILTON HEAD CLEAR 72 57 60 CALM 30.00R  
 
   
..EASTERN GEORGIA
 
 
 
CITY SKY/WX TMP DP RH WIND PRES REMARKS
 
AUGUSTA BUSH F MOCLDY 63 54 72 CALM 29.99R  
6HR MIN TEMP: 63; 6HR MAX TEMP: 82;  
 
AUGUSTA DANIEL MOCLDY 74 37 26 NW5 30.01R  
6HR MIN TEMP: 74; 6HR MAX TEMP: 83;  
 
THOMSON PTCLDY 70 44 38 NW5 30.03R  
6HR MIN TEMP: 70; 6HR MAX TEMP: 82;  
 
WASHINGTON FAIR 67 40 37 W5 30.04R  
6HR MIN TEMP: 67; 6HR MAX TEMP: 80;  
 
CLAXTON FAIR 66 60 83 CALM 30.01R  
6HR MIN TEMP: 66; 6HR MAX TEMP: 81;  
 
SYLVANIA CLOUDY 63 59 85 CALM 30.02R  
6HR MIN TEMP: 63; 6HR MAX TEMP: 79;  
 
STATESBORO CLOUDY 65 57 76 CALM 30.01R  
6HR MIN TEMP: 65; 6HR MAX TEMP: 77;  
 
SAVANNAH MOCLDY 67 56 67 N6 30.00R  
6HR MIN TEMP: 67; 6HR MAX TEMP: 80;  
 
   
..SOUTHERN NORTH CAROLINA
 
 
 
CITY SKY/WX TMP DP RH WIND PRES REMARKS
 
CHARLOTTE PTCLDY 65 35 33 NW7 30.04R  
6HR MIN TEMP: 65; 6HR MAX TEMP: 77;  
 
MONROE PTCLDY 68 34 28 N6 30.02R  
6HR MIN TEMP: 68; 6HR MAX TEMP: 78;  
 
WADESBORO PTCLDY 68 38 32 CALM 30.02R  
6HR MIN TEMP: 68; 6HR MAX TEMP: 80;  
 
ROCKINGHAM MOCLDY 70 42 36 N3 30.02R  
6HR MIN TEMP: 70; 6HR MAX TEMP: 80;  
 
RUTHERFORDTON CLEAR 59 41 51 N7 30.08R  
ASHEVILLE CLEAR 58 34 40 NW5 30.11R  
6HR MIN TEMP: 58; 6HR MAX TEMP: 68;  
 

 
 
 
CLICK HERE TO GO TO PREVIOUS BULLETINS.

The Nexlab SC Page
The Nexlab GA Page Main Text Page